星链-32583 (STARLINK-32583)

导读 | 豆包AI

STARLINK-32583是美国SpaceX公司星链(Starlink)星座的一颗卫星,于2024年11月14日发射升空。作为星链低轨互联网星座的组成部分,它运行在近地轨道,旨在为全球偏远、欠发达地区提供高速低延迟的宽带互联网服务,助力星链实现全球覆盖的卫星互联网组网目标,延续了星链项目拓展全球连接的布局。

基本信息
目录编号:
61955
目录名称:
STARLINK-32583
国际标识:
2024-209S
轨道中心:
EARTH
卫星名称:
星链-32583
卫星全名:
星链-32583 (STARLINK-32583)
卫星状态:
在轨 (已飞行486 天)
发射日期:
2024-11-14 UTC
国别 :
美国 (US)
星等 :
--
轨道信息
数据来源 国际轨道数据
星历时间: 2026-03-14T20:21:18+0800
21小时前
查看轨道信息
半长轴: 6853.331km
偏心率: 0.0001197
轨道倾角: 53.159°
近地点辐角 81.073°
升交点赤经 120.130°
平近点角 279.040°
近地点: 474.373km
远地点: 476.015km
周期: 94.105分钟
每日圈数: 15.302073
详细信息
固有亮度:
5
最大亮度:
2.5
卫星平台:
Starlink V1.0
覆盖范围:
全球
运营商:
太空探索技术公司
运营商所在国:
美国
制造商(研发单位):
太空探索技术公司
制造商所在国:
美国
使用方式:
暂无
卫星简介
Starlink 计划是 SpaceX 推出的全球卫星互联网项目,通过发射低轨道卫星,为全球尤其是偏远地区提供高速、低延迟的互联网服务。自 2019 年起,Starlink 已部署数千颗卫星,旨在缩小全球数字鸿沟,推动互联网普及。该项目还为军事、航空等行业提供通信支持,带来广泛经济效益。
2D轨道图
3D轨道图
轨道高度分析图
轨道倾角分析图
轨道综合分析图
查看轨道综合分析图